Boone, NC

8:20 AM EDT on October 15, 2019 (GMT -0400)
Boone

Weather History for KTNB - August, 2019

Change the Weather History Date:

Tuesday, August 20, 2019

  Actual Average (WUND) Record (WUND)
Temperature  
Mean Temperature 70 °F -  
Max Temperature 81 °F - - (-1)
Min Temperature 58 °F - - (-1)
Cooling Degree Days 4    
Growing Degree Days 20 (Base 50)    
Moisture  
Dew Point 63 °F    
Average Humidity 80    
Maximum Humidity 100    
Minimum Humidity 49    
Precipitation  
Precipitation 0.00 in - - ()
Sea Level Pressure  
Sea Level Pressure 30.24 in    
Wind  
Wind Speed 1 mph ()    
Max Wind Speed 12 mph    
Max Gust Speed 16 mph    
Visibility 9.2 miles    
Events Thunderstorm    
Averages and records for this station are not official NWS values.
T = Trace of Precipitation, MM = Missing Value Source: Averaged Metar Reports

Daily Weather History Graph

Daily Weather History Graph

Search for Another Location

Airport or City:

Astronomy

Aug. 20, 2019 Rise Set
Actual Time 6:48 AM EDT 8:10 PM EDT
Civil Twilight 6:21 AM EDT 8:37 PM EDT
Nautical Twilight 5:49 AM EDT 9:10 PM EDT
Astronomical Twilight 5:15 AM EDT 9:43 PM EDT
Moon 11:07 PM EDT (8/20) 11:17 AM EDT (8/20)
Length of Visible Light 14h 16m
Length of Day
13h 22m
Waning Gibbous, 78% of the Moon is Illuminated
Aug 20
Waning Gibbous
Aug 23
Last Quarter
Aug 30
New
Sep 5
First Quarter
Sep 14
Full

Hourly Weather History & Observations

Time (EDT) Temp. Heat Index Dew Point Humidity Pressure Visibility Wind Dir Wind Speed Gust Speed Precip Events Conditions
12:15 AM 64.9 °F - 64.8 °F 99% 30.25 in 10.0 mi Calm Calm - N/A   Clear
12:35 AM 64.2 °F - 64.2 °F 100% 30.25 in 10.0 mi Calm Calm - N/A   Clear
12:55 AM 64.8 °F - 64.4 °F 99% 30.25 in 10.0 mi Calm Calm - N/A   Clear
1:15 AM 63.3 °F - 63.3 °F 100% 30.24 in 7.0 mi Calm Calm - N/A   Clear
1:35 AM 63.0 °F - 63.0 °F 100% 30.23 in 7.0 mi Calm Calm - N/A   Clear
1:55 AM 63.1 °F - 63.1 °F 100% 30.23 in 7.0 mi Calm Calm - N/A   Clear
2:15 AM 62.6 °F - 62.6 °F 100% 30.23 in 5.0 mi Calm Calm - N/A   Clear
2:35 AM 63.5 °F - 63.5 °F 100% 30.23 in 10.0 mi Calm Calm - N/A   Clear
2:55 AM 62.2 °F - 62.2 °F 100% 30.24 in 4.0 mi Calm Calm - N/A   Clear
3:15 AM 62.6 °F - 62.6 °F 100% 30.24 in 7.0 mi Calm Calm - N/A   Clear
3:35 AM 62.1 °F - 62.1 °F 100% 30.25 in 7.0 mi Calm Calm - N/A   Clear
3:55 AM 61.7 °F - 61.7 °F 100% 30.25 in 4.0 mi Calm Calm - N/A   Clear
4:15 AM 61.5 °F - 61.5 °F 100% 30.25 in 7.0 mi Calm Calm - N/A   Clear
4:35 AM 62.2 °F - 61.5 °F 97% 30.25 in 10.0 mi Calm Calm - N/A   Clear
4:55 AM 61.7 °F - 60.3 °F 95% 30.25 in 10.0 mi Calm Calm - N/A   Clear
5:15 AM 60.3 °F - 60.3 °F 100% 30.25 in 7.0 mi Calm Calm - N/A   Clear
5:35 AM 60.4 °F - 60.4 °F 100% 30.25 in 10.0 mi Calm Calm - N/A   Clear
5:55 AM 59.7 °F - 59.4 °F 99% 30.25 in 10.0 mi Calm Calm - N/A   Clear
6:15 AM 59.4 °F - 59.4 °F 100% 30.26 in 10.0 mi Calm Calm - N/A   Clear
6:35 AM 58.6 °F - 58.6 °F 100% 30.26 in 7.0 mi Calm Calm - N/A   Clear
6:55 AM 58.1 °F - 58.1 °F 100% 30.27 in 4.0 mi Calm Calm - N/A   Clear
7:15 AM 58.5 °F - 58.5 °F 100% 30.27 in 7.0 mi Calm Calm - N/A   Clear
7:35 AM 58.6 °F - 58.6 °F 100% 30.27 in 5.0 mi Calm Calm - N/A   Clear
7:55 AM 59.9 °F - 59.9 °F 100% 30.27 in 10.0 mi Calm Calm - N/A   Clear
8:15 AM 61.0 °F - 61.0 °F 100% 30.28 in 10.0 mi Calm Calm - N/A   Clear
8:35 AM 63.0 °F - 62.6 °F 99% 30.27 in 10.0 mi Calm Calm - N/A   Clear
8:55 AM 65.8 °F - 62.4 °F 89% 30.27 in 10.0 mi Calm Calm - N/A   Clear
9:15 AM 68.7 °F - 60.4 °F 75% 30.27 in 10.0 mi Calm Calm - N/A   Clear
9:35 AM 70.7 °F - 61.5 °F 73% 30.27 in 10.0 mi Calm Calm - N/A   Clear
9:55 AM 73.0 °F - 62.4 °F 69% 30.26 in 10.0 mi Calm Calm - N/A   Clear
10:15 AM 75.0 °F - 62.2 °F 64% 30.25 in 10.0 mi Calm Calm - N/A   Clear
10:35 AM 77.5 °F - 57.2 °F 49% 30.26 in 10.0 mi Calm Calm - N/A   Clear
10:55 AM 78.8 °F - 58.3 °F 49% 30.27 in 10.0 mi Calm Calm - N/A   Clear
11:15 AM 79.3 °F - 61.2 °F 54% 30.27 in 10.0 mi Calm Calm - N/A   Clear
11:35 AM 81.0 °F 81.8 °F 61.3 °F 51% 30.28 in 10.0 mi Calm Calm - N/A   Scattered Clouds
11:55 AM 81.5 °F 82.4 °F 61.9 °F 51% 30.28 in 10.0 mi Calm Calm - N/A   Scattered Clouds
12:15 PM 81.5 °F 82.5 °F 62.1 °F 52% 30.28 in 10.0 mi South 5.8 mph - N/A   Scattered Clouds
12:35 PM 78.6 °F - 63.1 °F 59% 30.28 in 10.0 mi Calm Calm - N/A   Scattered Clouds
12:55 PM 78.3 °F - 63.7 °F 61% 30.28 in 10.0 mi Calm Calm - N/A   Clear
1:15 PM 80.4 °F 82.2 °F 64.8 °F 59% 30.27 in 10.0 mi Calm Calm - N/A   Clear
1:35 PM 81.0 °F 82.5 °F 63.7 °F 56% 30.26 in 10.0 mi ENE 4.6 mph - N/A   Clear
1:55 PM 81.5 °F 82.9 °F 63.7 °F 55% 30.25 in 10.0 mi Calm Calm - N/A   Clear
2:15 PM 79.3 °F - 64.8 °F 61% 30.24 in 10.0 mi Calm Calm - N/A   Clear
2:35 PM 81.5 °F 83.4 °F 65.3 °F 58% 30.24 in 10.0 mi SSE 8.1 mph - N/A   Scattered Clouds
2:55 PM 81.1 °F 82.8 °F 64.4 °F 57% 30.23 in 10.0 mi SE 11.5 mph 16.1 mph N/A   Clear
3:15 PM 79.3 °F - 63.9 °F 59% 30.23 in 10.0 mi SSE 9.2 mph - N/A   Scattered Clouds
3:35 PM 78.8 °F - 63.3 °F 59% 30.23 in 10.0 mi South 9.2 mph - N/A   Scattered Clouds
3:55 PM 80.4 °F 82.0 °F 64.0 °F 57% 30.23 in 10.0 mi South 6.9 mph - N/A   Mostly Cloudy
4:15 PM 80.1 °F 81.7 °F 64.0 °F 58% 30.22 in 10.0 mi Calm Calm - N/A   Scattered Clouds
4:35 PM 77.7 °F - 64.0 °F 63% 30.21 in 10.0 mi SSE 4.6 mph - N/A   Clear
4:55 PM 79.0 °F - 64.0 °F 60% 30.21 in 10.0 mi Calm Calm - N/A   Scattered Clouds
5:15 PM 77.7 °F - 64.6 °F 64% 30.22 in 10.0 mi Calm Calm - N/A   Scattered Clouds
5:35 PM 78.4 °F - 63.5 °F 60% 30.22 in 10.0 mi Calm Calm - N/A   Clear
5:55 PM 77.5 °F - 64.4 °F 64% 30.22 in 10.0 mi Calm Calm - N/A Thunderstorm Scattered Clouds
6:15 PM 76.3 °F - 63.7 °F 65% 30.22 in 10.0 mi Calm Calm - N/A   Scattered Clouds
6:55 PM 73.4 °F - 62.8 °F 69% 30.22 in 10.0 mi Calm Calm - N/A   Clear
7:15 PM 72.9 °F - 62.2 °F 69% 30.21 in 10.0 mi Calm Calm - N/A   Clear
7:35 PM 73.0 °F - 62.4 °F 69% 30.22 in 10.0 mi Calm Calm - N/A   Clear
7:55 PM 71.2 °F - 61.9 °F 72% 30.21 in 10.0 mi Calm Calm - N/A   Clear
8:15 PM 70.7 °F - 62.6 °F 75% 30.22 in 10.0 mi Calm Calm - N/A   Mostly Cloudy
8:35 PM 69.6 °F - 62.6 °F 78% 30.22 in 10.0 mi Calm Calm - N/A   Scattered Clouds
8:55 PM 68.7 °F - 63.0 °F 82% 30.22 in 10.0 mi Calm Calm - N/A   Scattered Clouds
9:15 PM 68.0 °F - 65.5 °F 92% 30.22 in 10.0 mi Calm Calm - N/A   Clear
9:35 PM 68.4 °F - 66.2 °F 93% 30.22 in 10.0 mi Calm Calm - N/A   Mostly Cloudy
9:55 PM 68.7 °F - 66.7 °F 93% 30.22 in 10.0 mi Calm Calm - N/A   Overcast
10:15 PM 68.9 °F - 65.3 °F 88% 30.22 in 10.0 mi Calm Calm - N/A   Overcast
10:35 PM 69.1 °F - 65.5 °F 88% 30.22 in 10.0 mi Calm Calm - N/A   Overcast
10:55 PM 68.5 °F - 65.1 °F 89% 30.21 in 10.0 mi Calm Calm - N/A   Mostly Cloudy
11:15 PM 68.7 °F - 64.8 °F 87% 30.21 in 10.0 mi Calm Calm - N/A   Scattered Clouds
11:35 PM 66.6 °F - 66.2 °F 99% 30.21 in 10.0 mi Calm Calm - N/A   Scattered Clouds
11:55 PM 65.7 °F - 65.7 °F 100% 30.20 in 10.0 mi Calm Calm - N/A   Clear